Weather in Bohodukhiv

Ukraine / Kharkiv Region     50˚09′42″N   35˚31′31″E
temp.,
°C
wind,
m/s
gust,
m/s
humid.,
%
clouds,
%
prec.,
mm/h
press.,
hPa
HPBL,
m
1 december, tue
tue123:00+4˚se3679100 0.0 1026527
02:00+3˚ese5878100 0.0 1026524
05:00+1˚ese6974100 0.0 1027482
08:00+1˚ese6976100 0.0 1027480
11:00+1˚ese6879100 0.0 1028553
14:00+1˚ese6878100 0.0 1028727
17:00ese6876100 0.0 1028762
20:00e5983100 0.0 1029586
2 december, wed
wed223:00−1˚e71186100 0.1 1030581
02:00−1˚ese61074100 0.1 1030530
05:00−3˚ese61172100 0.0 1030529
08:00−3˚ese697799 0.0 1031536
11:00−2˚ese697697 0.1 1031538
14:00−1˚ese587798 0.1 1030480
17:00−2˚ese61081100 0.0 1030417
20:00−2˚ese61082100 0.0 1030447
3 december, thu
thu323:00−2˚ese598299 0.0 1030444
02:00−2˚ese589299 0.3 1030440
05:00−2˚ese5895100 0.9 1029391
08:00−1˚ese5992100 1.4 1029325
11:00−1˚ese6992100 0.4 1029358
14:00−1˚ese5792100 0.4 1028325
17:00−1˚ese5894100 0.3 1028284
20:00−1˚ese5893100 0.4 1028257
4 december, fri
fri423:00−1˚ese4795100 0.2 1028254
02:00ese4697100 0.3 1028206
05:00ese4795100 0.1 1028208
08:00ese5994100 0.1 1028289
11:00ese5891100 0.0 1028353
14:00ese589099 0.0 1028445
17:00ese61092100 0.0 1028433
20:00ese51093100 0.0 1029409
5 december, sat
sat523:00se51092100 0.0 1029399
02:00ese5892100 0.0 1030413
05:00−1˚ese5991100 0.0 1030396
08:00−1˚ese5890100 0.0 1031396
11:00ese588693 0.0 1031376
14:00ese598568 0.0 1031365
17:00−3˚ese6108911 0.0 1032330
20:00−4˚ese610849 0.0 1032332